GEFSSGP_con_cape1000_288.txt.gz
Probability
23 23 32 52 42 13 0 0 0 0 0 0 0 0 0 6 6 0 6 10 6 10 13 32 55 55 58 55 52 55 65 61 61 61 61 61 61 55 58 48 52 39 55 61 58 52 52 52 55
16 26 35 35 19 3 0 0 0 0 0 0 0 0 0 0 0 3 10 13 10 10 19 19 52 52 45 58 61 58 61 58 58 55 58 55 55 55 52 55 55 52 52 55 52 48 45 48 48
29 35 26 19 3 0 0 0 0 0 0 3 0 0 0 0 0 6 10 13 10 10 19 29 55 55 55 52 68 65 61 65 58 58 55 52 48 48 48 52 45 48 48 42 42 45 39 39 39
35 35 19 3 3 0 0 0 0 0 0 3 3 0 0 0 3 3 19 16 10 16 16 29 55 55 55 58 68 61 61 68 61 58 55 55 48 48 42 45 45 45 35 35 32 42 39 39 29
45 29 6 3 0 0 0 0 0 0 3 3 3 0 3 3 3 6 13 13 13 16 16 23 55 52 58 58 61 65 61 61 61 58 58 52 48 45 39 42 39 42 32 32 32 29 35 35 29
29 10 6 0 0 0 0 0 0 0 0 6 3 6 6 6 3 6 6 10 19 19 23 26 58 55 58 61 68 61 55 58 61 61 58 52 52 45 35 39 39 32 32 29 26 32 32 32 35
10 6 3 0 0 0 0 0 0 0 0 3 3 3 6 6 6 6 6 13 16 16 23 29 32 48 55 55 55 61 61 55 58 58 55 48 45 45 42 45 42 39 42 42 45 35 39 39 35
6 6 3 0 0 0 0 0 0 0 3 6 6 3 6 6 6 6 10 13 19 19 16 19 29 32 42 35 55 55 61 58 52 48 48 52 45 48 48 48 48 39 42 39 42 42 42 42 42
6 6 0 0 0 0 0 0 0 0 0 3 3 10 10 6 6 10 10 13 13 19 23 19 26 29 29 26 32 52 55 58 58 52 55 55 45 35 39 35 48 42 26 32 45 39 39 48 39
3 3 0 0 0 0 0 0 0 0 0 0 6 10 10 6 6 6 10 6 16 19 23 29 32 32 26 23 52 42 23 58 68 68 61 55 45 45 26 48 52 42 45 39 45 52 45 35 29
3 0 0 0 0 0 0 0 0 0 0 10 10 6 6 10 10 13 13 10 23 19 26 29 39 45 39 42 39 45 48 65 52 58 61 65 52 35 42 42 45 58 58 35 39 45 42 39 52
0 0 0 0 0 0 0 0 0 3 6 6 13 10 6 6 10 13 16 19 26 29 29 32 42 45 55 55 52 48 48 52 45 58 55 55 65 58 61 65 58 61 48 61 55 58 45 45 48
0 0 0 0 0 0 0 0 0 0 3 6 13 10 10 10 16 16 19 23 19 32 39 45 52 58 61 65 55 48 58 48 45 58 48 58 61 68 55 58 65 65 61 58 58 61 65 58 52
0 0 0 0 0 0 0 3 3 3 0 3 10 13 6 13 23 16 23 29 23 35 45 42 45 61 65 58 65 61 55 68 55 58 48 52 61 68 68 68 74 61 65 65 65 58 58 52 55
0 0 0 0 0 0 0 3 3 3 0 6 13 10 13 13 13 23 26 32 29 39 39 45 52 55 68 61 58 58 61 45 55 58 55 52 61 68 68 68 65 61 65 58 61 58 61 58 52
0 0 0 0 0 0 3 3 0 3 0 10 10 10 10 10 10 6 23 23 45 48 55 45 29 52 71 71 68 65 58 61 55 61 65 61 58 58 65 68 61 71 74 68 71 68 68 65 65
0 0 0 0 0 0 0 0 3 3 3 10 10 10 6 10 10 13 16 26 35 55 68 61 61 55 58 61 68 68 65 55 55 58 55 55 52 48 71 68 71 68 65 68 65 68 61 68 65
0 0 0 0 0 0 0 0 10 10 13 19 13 10 6 3 10 10 16 29 39 48 71 65 71 71 68 65 74 74 65 61 61 61 61 48 48 48 55 65 61 68 65 74 74 68 68 68 68
0 0 0 0 3 0 0 0 3 6 6 16 16 13 13 13 10 16 23 26 35 52 68 71 65 68 74 74 68 71 71 71 61 61 55 55 48 48 58 61 68 71 71 74 61 71 61 68 71
0 0 0 0 0 3 3 0 0 0 10 13 19 16 23 10 13 19 23 26 39 68 84 77 81 74 71 71 74 81 71 68 68 61 65 58 48 52 48 58 61 68 77 68 71 68 71 71 74
0 0 0 0 0 0 0 3 3 6 6 16 13 23 19 19 16 23 26 32 39 48 81 68 84 81 74 81 74 71 77 74 71 68 68 68 55 58 65 65 74 74 77 71 68 74 65 68 68
0 0 0 0 0 0 0 6 10 6 3 3 13 16 16 29 23 29 23 42 42 42 71 81 84 84 84 77 77 71 74 71 71 74 74 68 65 68 68 68 71 71 84 81 77 74 77 71 58
0 0 0 0 0 0 0 0 10 6 3 6 10 16 13 26 29 32 35 35 45 39 65 81 84 84 84 84 81 81 77 77 77 77 81 71 71 68 65 65 65 68 74 77 74 77 74 74 71
0 0 0 0 0 0 0 3 3 6 6 6 6 10 13 23 29 32 39 45 42 42 52 74 84 87 87 87 87 84 84 84 81 77 81 74 71 74 68 68 74 74 74 71 71 71 71 74 74
0 0 0 0 3 0 0 0 0 3 6 10 16 19 16 23 23 26 32 42 45 48 58 74 87 87 87 87 87 87 87 84 81 81 81 74 71 74 71 68 71 71 68 68 74 71 71 71 71
0 0 0 0 0 0 0 0 3 3 3 13 13 13 13 23 26 23 32 42 48 55 71 74 87 87 87 87 87 87 87 84 84 84 81 81 71 68 68 68 65 65 65 61 65 65 68 65 58
0 0 0 0 0 0 0 10 3 3 6 6 6 13 13 19 23 23 32 32 45 58 68 65 77 84 87 87 87 87 87 84 77 81 81 77 74 68 68 65 65 65 65 61 61 65 61 58 55
0 0 0 0 13 0 0 3 6 6 6 6 10 10 13 16 23 26 35 45 55 58 68 61 71 74 84 84 84 84 84 84 84 81 77 74 71 68 68 61 61 61 58 55 58 48 45 48 52
0 0 0 0 0 0 0 3 3 6 3 3 10 10 13 10 19 19 32 45 58 58 61 68 71 77 74 71 77 77 84 84 84 84 81 77 77 68 65 61 61 61 52 48 58 45 45 42 42
0 0 0 0 6 0 3 3 3 6 6 6 13 13 13 13 13 19 26 45 55 61 58 58 61 68 68 68 71 68 71 77 81 81 81 74 71 61 61 65 58 58 58 58 55 48 42 39 42

GEFSSGP_con_cape1000_294.txt.gz
Probability
32 10 13 13 6 3 0 0 0 0 0 0 0 0 0 0 0 0 3 3 6 19 26 48 58 65 68 68 61 61 61 61 65 65 65 71 65 65 68 55 58 58 55 65 65 71 65 65 61
10 6 10 16 6 0 0 0 0 0 0 0 0 0 0 0 3 3 0 3 6 16 19 32 68 65 65 61 61 58 55 61 65 71 65 65 68 58 61 61 58 55 55 55 58 48 52 55 48
3 6 13 13 6 0 0 0 0 0 0 0 0 0 0 0 0 0 3 0 3 6 16 42 61 71 77 68 71 68 58 61 65 65 61 55 55 58 48 55 52 48 48 52 45 45 42 42 39
13 16 6 6 3 0 0 0 0 0 0 0 0 0 0 0 3 0 0 0 3 10 23 45 65 68 74 74 74 74 65 68 61 65 55 58 52 45 52 58 45 45 42 45 39 39 42 39 39
13 10 6 3 3 0 0 0 0 0 0 0 0 0 0 3 3 0 0 3 3 6 23 42 65 68 68 71 68 65 68 68 68 61 55 52 48 45 52 55 45 45 39 35 35 26 32 29 39
13 6 3 0 0 0 0 0 0 0 3 3 3 3 3 6 3 3 0 3 3 13 19 42 74 68 71 65 74 68 65 74 74 55 55 55 48 48 48 48 39 39 35 26 23 26 32 35 39
10 6 3 0 0 0 0 0 0 0 3 3 3 3 3 6 3 3 0 0 6 10 6 19 45 45 68 65 65 65 65 71 55 52 48 55 52 45 48 45 42 42 35 35 39 39 39 39 45
6 6 3 0 0 0 0 0 0 0 0 3 3 3 3 6 3 3 6 10 6 10 6 10 10 16 26 39 61 68 65 58 55 65 58 61 55 52 48 52 55 39 32 32 32 32 32 39 48
6 6 3 3 0 0 0 0 0 0 0 3 3 3 3 6 6 3 6 6 6 6 10 6 6 6 10 13 45 48 48 52 45 52 61 42 26 23 29 42 45 39 52 45 39 39 45 45 48
6 6 3 0 0 0 0 0 0 0 3 3 6 6 10 10 10 6 3 3 3 3 6 6 6 6 6 13 13 10 16 23 19 26 32 13 10 3 19 39 52 58 55 52 52 52 52 45 23
3 0 0 0 0 0 0 0 0 3 3 3 6 6 10 10 6 3 3 3 3 6 10 6 10 10 6 10 13 6 6 10 6 6 6 6 6 3 0 3 26 29 32 13 19 29 23 13 10
0 0 0 0 0 0 0 0 3 3 3 6 6 6 6 6 3 3 3 6 6 10 10 6 10 10 10 13 10 10 0 6 3 6 0 3 0 0 0 0 3 0 0 6 3 6 10 13 10
0 0 0 0 0 0 0 3 3 6 3 6 3 3 3 3 3 3 6 6 10 10 10 6 10 10 6 10 6 6 6 10 6 3 6 3 0 0 0 3 3 3 3 6 10 6 13 16 10
0 0 0 0 0 0 3 3 3 6 6 3 3 3 3 3 3 6 6 10 10 10 10 6 13 13 10 13 6 3 3 6 6 3 6 6 0 0 3 10 10 6 10 6 3 10 10 6 16
0 0 0 0 0 3 3 3 3 6 6 6 3 3 6 3 3 3 3 3 3 6 6 3 13 10 10 10 6 3 6 3 3 0 6 0 0 0 0 10 13 10 10 6 10 3 10 19 16
0 0 0 0 0 0 3 3 3 6 10 6 3 3 3 3 3 0 3 3 3 6 6 6 16 10 6 10 6 10 6 3 0 0 3 6 6 0 6 13 13 6 10 10 10 10 10 16 13
0 0 0 0 0 0 3 3 3 10 3 3 3 3 6 0 3 3 3 0 3 3 0 0 6 10 10 10 13 13 10 10 6 3 0 0 3 10 13 16 13 13 13 16 19 10 10 16 13
0 0 0 0 0 3 3 3 3 0 3 3 3 3 0 0 3 3 3 3 0 0 0 10 10 10 6 10 16 13 10 10 13 6 3 3 6 10 10 16 16 16 23 16 16 13 10 6 6
0 0 0 0 0 0 0 3 0 0 0 0 0 0 0 0 3 6 3 3 0 6 6 3 10 6 6 13 16 10 10 10 13 6 6 16 10 16 16 26 23 19 19 16 13 13 10 6 6
0 0 0 0 0 0 0 3 0 0 0 0 0 0 0 0 0 6 6 6 6 13 10 10 13 10 10 10 10 13 13 13 10 10 10 13 19 16 23 19 23 26 16 13 10 10 13 6 6
0 0 0 0 0 0 0 0 0 0 0 0 0 0 0 0 0 6 6 6 6 6 6 13 13 13 13 13 13 23 16 16 19 19 13 19 23 19 19 19 16 19 23 16 10 13 13 10 10
0 0 0 0 0 0 0 0 0 0 0 0 0 0 0 0 3 6 6 6 10 13 10 6 13 16 16 16 16 16 13 13 13 16 13 19 23 19 16 16 16 16 19 16 16 16 16 13 16
0 0 0 0 0 0 0 0 0 0 0 0 0 0 0 0 3 3 10 10 13 16 16 13 19 23 16 19 13 13 13 16 16 19 19 23 26 23 19 19 16 19 19 16 19 19 13 16 13
0 0 0 0 0 0 0 0 0 0 0 0 0 3 0 0 6 10 13 13 16 19 29 32 26 29 23 26 23 19 19 16 23 23 23 26 29 26 26 32 23 23 19 13 16 16 13 16 23
0 0 0 0 0 0 0 0 0 0 0 0 0 3 3 6 6 6 13 23 26 26 42 35 35 29 32 32 32 32 32 29 32 29 26 32 29 32 23 32 26 26 26 23 23 19 19 23 23
0 0 0 0 0 0 0 0 3 0 3 3 0 3 6 6 6 6 10 16 19 32 39 35 35 26 32 32 29 32 32 32 32 35 29 29 29 26 16 16 35 35 26 26 23 29 26 26 29
0 0 0 0 0 0 0 3 0 0 0 3 3 3 3 10 6 6 13 16 23 26 32 35 32 29 35 39 39 32 35 32 29 35 26 32 26 26 26 29 26 29 32 29 26 26 26 19 19
0 0 0 0 0 0 0 0 0 3 0 0 6 3 3 10 6 6 13 13 10 19 26 26 23 29 32 39 35 39 29 32 26 29 29 29 29 32 26 29 35 29 32 32 29 32 23 19 16
0 0 0 0 0 0 0 0 0 0 3 3 10 3 10 10 10 13 6 16 6 13 16 26 26 26 35 39 42 42 32 39 39 32 29 29 32 32 32 29 32 32 32 26 29 32 35 26 26
0 0 0 0 0 0 0 0 3 0 3 3 6 3 6 6 10 13 6 10 6 19 23 19 32 32 39 35 39 35 32 39 39 35 32 29 32 29 32 35 42 39 29 23 29 32 32 29 29

GEFSSGP_con_cape1000_300.txt.gz
Probability
23 10 6 0 0 0 0 0 0 0 0 0 0 0 0 0 0 0 0 0 0 0 16 39 52 55 55 55 55 52 58 55 58 61 58 65 65 68 65 61 55 48 52 58 58 55 74 68 58
13 10 6 0 0 0 0 0 0 0 0 0 0 0 0 0 0 0 0 0 0 3 6 26 52 58 55 58 55 55 55 55 55 48 55 58 61 61 65 55 55 52 52 55 65 65 61 65 61
10 10 3 3 0 0 0 0 0 0 0 0 0 0 0 0 0 0 0 0 0 3 6 29 61 65 58 58 58 55 55 58 61 58 55 55 55 55 52 52 45 45 48 45 58 48 45 55 58
10 6 3 3 0 0 0 0 0 0 0 3 3 3 3 3 0 0 0 0 0 0 13 35 71 68 68 68 71 68 65 65 58 65 58 58 61 61 52 52 48 48 42 42 42 39 48 52 48
6 6 3 0 0 0 0 0 0 0 3 3 3 3 3 3 0 0 0 3 0 3 13 32 61 71 74 71 74 74 68 61 65 65 65 58 58 58 55 39 48 45 35 39 45 42 39 35 42
6 6 0 0 0 0 0 0 0 0 0 3 3 0 6 3 0 0 0 3 3 3 16 32 52 71 74 81 77 71 65 61 58 65 65 55 58 58 52 48 45 48 39 39 39 32 29 35 45
6 6 3 0 0 0 0 0 0 0 0 3 3 0 3 3 0 0 0 0 0 6 13 16 32 42 48 61 65 65 61 58 58 58 55 65 61 55 52 55 52 48 39 45 35 29 29 35 42
6 6 3 0 0 0 0 0 0 3 6 6 3 3 0 6 6 0 0 0 0 0 3 3 6 13 23 29 48 55 48 52 52 58 58 52 45 45 45 55 52 45 45 42 39 32 29 35 48
6 3 3 0 0 0 0 0 3 3 6 3 3 3 3 6 3 3 0 0 6 3 0 0 3 3 6 10 29 26 35 35 39 26 45 35 6 10 23 35 55 52 45 45 45 32 42 42 45
3 3 3 0 0 0 0 3 3 3 6 3 3 6 6 6 0 0 0 0 3 6 3 0 3 3 3 6 6 10 13 10 10 10 13 6 3 6 19 32 48 45 48 45 45 42 35 29 23
3 3 3 0 0 3 3 3 3 3 3 3 3 6 6 6 3 3 0 3 3 6 3 0 0 3 3 3 3 3 3 0 0 0 3 0 0 0 0 0 10 3 6 3 10 10 13 13 19
0 0 0 0 3 3 3 3 3 0 3 3 3 6 6 3 0 0 0 0 0 3 3 0 0 0 0 3 3 0 0 0 0 0 0 0 0 0 0 0 0 0 0 3 3 3 6 16 6
0 3 3 3 3 3 3 3 0 0 3 3 6 3 3 3 0 0 0 0 0 3 0 0 0 0 0 0 0 0 0 0 0 0 0 0 0 0 0 0 0 0 0 3 3 3 3 10 10
3 3 3 3 3 3 3 3 0 3 3 3 3 3 3 3 0 0 0 0 0 0 0 0 0 0 0 0 0 0 0 0 0 0 0 0 0 0 0 0 0 3 3 3 3 3 6 10 13
3 3 0 3 3 3 3 3 6 3 3 6 3 3 3 3 0 0 0 0 0 0 0 0 0 0 3 3 0 0 0 0 0 0 0 0 0 0 0 3 3 3 3 6 6 3 10 10 13
0 0 0 0 0 3 3 3 6 3 3 6 3 3 3 3 3 0 0 0 0 0 0 0 3 3 3 0 0 0 0 0 0 0 0 0 0 0 3 3 3 3 0 3 3 6 6 10 6
0 0 0 0 0 3 0 0 3 3 3 6 3 3 3 3 3 3 3 3 3 3 0 0 3 3 0 0 0 0 0 0 0 0 0 0 0 3 3 3 6 3 3 6 6 10 6 6 6
0 0 0 0 0 3 3 3 3 3 3 3 3 3 3 3 3 3 3 3 3 3 0 0 0 0 0 0 0 0 0 0 0 0 0 3 0 3 3 6 10 10 10 10 10 10 10 10 10
0 0 0 0 0 0 3 3 3 3 3 3 0 3 3 3 3 3 3 3 3 3 0 0 0 0 0 0 0 3 0 0 3 3 3 3 10 10 3 10 3 13 13 13 13 10 10 6 6
0 0 0 0 0 0 0 0 0 3 3 0 0 0 3 0 0 3 3 3 3 3 0 0 0 0 0 0 0 0 0 3 3 6 10 10 13 16 13 10 10 13 13 10 10 10 10 6 6
0 0 0 0 0 0 0 0 0 0 0 0 0 0 0 0 0 3 3 3 3 3 0 0 0 0 0 0 0 6 6 6 6 10 10 10 13 13 13 10 10 13 13 13 13 13 13 13 6
0 0 0 0 0 0 0 0 0 0 0 0 0 0 0 0 0 3 3 3 3 3 0 3 0 0 0 0 0 6 6 10 10 10 10 10 10 10 13 13 13 10 10 10 10 13 13 10 10
0 0 0 0 0 0 0 0 0 0 0 0 0 0 0 0 0 3 3 3 3 3 3 3 3 0 0 3 3 6 6 10 6 10 10 6 6 6 10 10 10 10 10 10 6 10 13 10 10
0 0 0 0 0 0 0 0 0 0 0 0 0 0 0 0 0 0 3 6 3 3 10 6 3 0 3 3 6 6 6 3 13 10 10 6 6 3 3 10 10 10 10 10 6 10 13 10 6
0 0 0 0 0 0 0 0 0 0 0 0 0 0 0 0 0 0 3 6 10 6 6 6 3 3 3 3 6 3 3 6 6 10 10 6 6 10 10 10 10 13 13 13 13 13 13 19 16
0 0 0 0 0 0 0 0 0 0 0 3 3 0 0 0 0 0 3 6 6 6 6 6 3 3 3 3 3 3 10 10 10 10 10 6 10 10 10 13 13 16 13 16 19 19 19 19 19
0 0 0 0 0 0 0 0 0 0 3 3 3 3 3 0 0 0 10 6 6 6 10 6 6 3 3 6 6 6 10 10 6 6 6 13 10 10 10 13 16 13 19 19 19 19 19 19 19
0 0 0 0 0 0 0 0 0 0 3 3 3 3 3 3 3 6 6 6 6 6 10 6 6 6 3 6 10 13 10 10 10 10 10 13 13 10 10 13 19 19 23 19 23 16 19 16 16
0 0 0 0 0 0 0 0 0 0 0 3 3 3 3 3 3 3 6 6 6 6 3 6 6 10 6 6 10 13 13 6 6 6 10 6 6 10 10 16 19 16 23 26 26 16 16 13 16
0 0 0 0 0 0 0 0 0 0 0 3 3 3 3 3 3 3 10 10 6 6 3 3 10 10 13 13 16 16 10 6 6 10 10 6 6 13 10 10 13 13 23 23 23 16 19 16 16

GEFSSGP_con_cape1000_306.txt.gz
Probability
6 6 16 19 19 3 0 0 0 0 0 0 0 0 0 0 0 3 3 0 3 13 16 19 48 55 52 55 52 55 48 42 52 58 58 55 48 55 55 52 55 52 45 52 48 58 61 55 55
13 16 16 16 6 0 0 0 0 0 0 0 0 0 0 0 0 3 0 3 3 10 16 16 58 65 65 61 61 71 48 55 58 58 65 61 55 58 61 55 58 52 52 52 45 55 61 55 52
13 16 16 13 0 0 0 0 0 0 0 0 0 0 0 3 0 0 3 3 10 10 26 32 61 61 65 71 71 68 68 61 58 55 55 58 61 52 58 52 48 45 55 45 45 52 52 55 48
23 23 13 6 0 0 0 0 0 0 0 0 0 0 3 3 3 3 6 6 10 10 13 32 58 68 68 65 71 71 68 68 58 55 55 55 52 45 45 52 48 48 52 42 48 48 45 52 42
19 13 10 0 0 0 0 0 0 0 0 0 0 0 3 6 3 3 6 6 6 13 19 32 48 65 71 61 65 68 71 71 65 61 58 58 55 45 45 55 55 52 48 45 45 42 39 45 32
16 10 0 0 0 0 0 0 0 0 0 3 0 0 3 6 6 6 6 13 10 19 19 35 45 58 58 61 65 61 65 65 71 58 61 68 61 55 48 39 45 42 42 39 35 42 35 35 45
16 13 0 0 0 0 0 0 3 0 3 0 0 0 3 10 13 13 13 13 13 16 23 35 42 45 48 58 48 52 55 58 58 58 52 55 52 52 48 45 42 42 35 42 35 39 45 42 48
13 10 0 0 0 0 0 3 3 0 0 0 0 0 3 6 13 13 6 16 16 19 19 26 29 29 32 29 39 45 42 48 52 52 45 52 45 52 42 45 42 45 42 35 32 26 35 42 42
6 6 0 0 0 0 0 3 3 0 0 3 0 0 3 3 10 10 13 13 10 13 19 23 19 23 19 13 29 39 42 42 45 45 32 32 35 26 32 35 45 45 39 32 29 29 29 35 35
6 0 0 0 0 0 3 3 3 0 0 6 6 3 3 3 6 10 10 13 16 13 23 26 23 19 13 13 23 26 16 32 32 42 23 29 29 26 10 26 39 35 29 35 29 35 42 32 26
3 3 0 0 0 3 3 3 3 0 3 3 6 3 6 10 10 10 13 13 19 19 16 23 26 29 23 16 13 16 16 35 19 23 23 29 19 10 16 26 39 42 32 39 32 26 23 19 29
0 0 0 0 3 3 3 3 3 0 3 6 6 6 6 6 6 10 13 16 16 16 16 19 23 29 32 16 13 10 10 10 10 26 23 26 23 29 29 29 23 26 35 39 39 42 35 35 39
0 0 0 0 3 3 3 0 0 0 3 6 6 10 6 6 3 0 6 6 13 13 13 19 29 32 26 32 23 10 16 3 6 29 26 26 19 32 29 42 39 35 35 35 35 39 32 39 29
0 0 0 0 3 3 3 0 0 3 3 3 3 10 10 6 0 0 10 13 16 19 16 23 19 26 29 35 32 19 16 29 10 13 29 35 29 32 32 42 45 42 39 42 42 32 32 29 29
0 0 0 0 3 3 3 3 0 3 3 10 6 10 13 10 3 6 6 13 19 23 23 19 23 26 35 32 26 19 19 10 16 19 35 35 35 39 39 29 35 42 35 35 42 35 32 39 32
0 0 0 0 3 3 3 3 3 3 3 3 13 13 13 10 6 10 13 16 19 26 26 23 10 23 39 39 42 29 23 19 26 32 29 39 35 39 39 35 35 35 32 32 42 32 29 26 29
0 0 0 0 0 0 0 0 6 3 3 3 10 16 16 13 6 13 13 13 26 29 39 39 16 19 32 39 35 35 39 32 29 39 39 45 48 48 52 42 39 35 35 29 32 32 29 35 35
0 0 0 0 0 0 0 0 6 10 3 3 10 13 13 13 19 19 16 16 29 35 45 42 42 52 45 39 39 42 42 35 35 42 42 45 52 48 52 45 45 39 39 45 55 48 55 45 39
0 0 0 0 0 0 0 0 6 10 10 6 10 6 13 16 10 23 19 19 32 39 52 52 48 58 58 48 39 39 32 29 39 32 32 42 52 48 48 45 48 48 45 48 48 52 48 48 39
0 0 0 0 0 0 0 0 0 10 13 10 16 10 10 13 19 23 26 26 32 42 52 52 55 58 55 55 55 42 48 32 26 35 42 39 42 45 39 52 45 45 55 55 55 55 48 35 48
0 0 0 0 0 0 0 0 3 10 13 16 16 16 6 10 26 29 32 32 29 39 55 45 52 58 55 58 45 39 42 48 35 32 39 45 42 45 45 52 52 48 39 39 52 55 48 45 48
0 0 0 0 0 0 0 0 3 0 13 13 19 19 13 10 26 29 32 32 32 35 42 52 58 58 58 55 48 39 48 32 35 42 39 48 48 45 42 42 52 48 39 48 42 35 45 52 39
0 0 0 0 0 0 0 0 0 3 3 13 16 16 16 23 23 29 35 39 32 32 29 52 61 61 58 55 55 61 39 42 39 42 48 45 45 42 35 39 42 48 48 48 48 52 52 52 42
0 0 0 0 0 0 0 0 0 6 0 3 13 16 16 26 29 32 39 42 42 32 32 42 61 71 71 58 52 58 48 52 45 52 48 48 48 42 42 39 45 39 45 52 55 55 55 55 52
0 0 0 0 0 0 0 0 0 3 10 10 10 19 19 26 32 39 42 42 45 48 32 55 61 77 71 61 55 55 58 55 55 52 48 52 42 45 39 39 55 42 52 52 55 55 45 45 48
0 0 0 0 0 0 0 0 3 6 6 13 19 16 19 19 35 39 42 45 52 52 55 52 58 68 65 61 65 61 68 58 55 58 55 58 48 39 39 48 48 45 45 42 48 42 45 45 48
0 0 0 0 0 0 0 6 10 0 0 13 23 23 26 23 23 35 42 45 45 55 48 55 55 61 65 61 65 65 58 58 52 58 55 52 48 45 45 52 45 45 45 48 48 45 45 45 42
0 0 0 0 0 0 0 3 6 13 13 13 13 19 23 19 23 29 39 42 45 48 55 52 55 58 55 58 55 52 55 55 61 61 52 52 52 48 52 52 52 48 55 52 48 45 45 42 42
0 0 0 0 0 0 0 3 10 10 6 13 19 29 23 26 19 29 29 45 48 52 45 52 52 52 52 52 55 52 48 52 55 58 52 55 58 55 52 52 48 52 48 39 48 39 39 39 35
0 0 0 0 0 0 3 6 3 6 6 10 19 35 32 29 23 26 29 39 45 52 48 48 52 55 58 58 58 58 55 52 52 52 55 55 55 55 52 52 45 42 42 42 42 42 35 42 35

GEFSSGP_con_cape1000_312.txt.gz
Probability
10 3 13 39 52 13 3 3 3 0 0 0 0 0 3 6 6 3 6 13 23 19 29 45 65 68 65 68 61 61 61 55 48 52 48 42 39 39 48 45 42 48 52 48 55 48 45 48 55
3 10 29 32 19 3 0 3 3 3 0 0 0 0 6 3 3 3 10 19 13 13 29 29 68 68 61 68 61 61 61 61 58 55 52 45 45 48 55 58 48 52 52 48 39 39 39 42 48
19 39 32 32 6 0 0 0 3 0 0 0 0 3 6 6 3 10 19 13 10 16 29 42 71 61 68 71 68 71 65 61 61 61 58 58 55 52 48 48 45 45 48 42 32 39 39 42 45
35 39 26 10 0 0 0 0 3 0 0 0 0 0 0 10 13 10 19 13 10 19 29 42 71 58 65 65 65 65 68 61 61 61 58 58 52 48 48 52 48 48 39 39 32 35 35 26 23
42 26 10 3 0 0 0 0 3 3 0 0 3 0 10 13 16 13 19 13 13 23 35 42 68 65 55 52 61 65 65 61 55 58 52 52 55 55 45 52 48 45 35 32 29 23 32 29 26
23 23 6 0 0 0 0 0 0 3 0 0 0 3 13 16 19 19 19 19 13 16 32 42 65 61 61 58 55 58 65 65 61 58 55 55 61 61 48 45 45 39 39 35 32 29 29 42 39
10 13 3 0 0 0 0 0 0 0 3 0 0 3 10 16 19 23 23 16 13 13 29 39 39 55 58 55 55 52 65 61 52 45 48 55 48 55 52 48 48 52 45 32 32 32 26 29 26
16 13 3 0 0 0 0 0 0 0 0 0 0 3 10 13 19 19 26 19 19 26 26 35 35 39 42 42 42 48 58 52 48 45 48 55 55 42 48 48 52 39 42 35 35 29 23 29 26
6 6 3 0 0 0 0 0 0 0 0 0 3 10 13 16 16 13 19 23 29 26 29 32 39 29 23 13 23 45 52 35 45 42 55 52 35 26 45 42 52 39 35 32 29 32 32 35 35
3 3 0 0 0 0 0 0 0 0 6 6 10 13 10 16 16 13 19 16 16 23 26 26 32 23 23 13 35 35 19 35 45 48 52 48 52 42 26 32 45 39 39 35 42 48 52 48 35
0 0 0 0 0 0 0 3 3 3 3 10 13 16 13 16 13 13 13 13 19 19 16 23 29 39 19 32 26 35 39 61 45 42 48 48 45 42 32 39 42 52 52 52 52 42 35 35 42
0 0 0 0 0 0 3 3 3 3 3 10 13 13 13 16 13 13 13 16 23 23 23 26 29 39 52 45 26 35 32 45 32 48 52 45 58 55 52 48 48 45 52 58 48 52 45 45 42
0 0 0 0 0 3 3 3 3 0 0 6 13 6 10 10 3 6 13 13 16 29 32 32 45 48 55 61 61 26 39 35 45 55 55 58 55 61 52 61 65 48 48 52 52 48 45 42 45
0 0 0 0 0 0 0 0 0 0 0 3 6 6 6 6 10 6 16 23 26 19 29 35 42 55 48 48 48 52 35 61 45 55 58 55 58 58 61 58 61 52 55 52 58 52 55 52 52
0 0 0 0 0 0 0 0 0 0 0 6 13 13 13 13 10 16 23 32 29 26 35 42 45 55 55 52 52 42 35 29 48 55 61 55 58 58 58 52 52 52 52 55 55 52 52 52 45
0 0 0 0 0 0 0 3 0 0 0 6 10 13 13 13 13 16 29 29 35 32 45 39 29 48 52 55 61 55 32 48 52 52 55 48 52 55 61 52 52 55 52 61 61 65 55 58 52
0 0 0 0 0 0 0 0 0 0 0 13 16 13 13 16 19 23 26 26 35 45 52 55 61 52 48 48 55 58 65 65 55 58 52 52 48 45 52 52 52 55 58 65 55 58 58 58 58
0 0 0 0 0 0 0 0 0 3 3 13 16 19 23 16 23 26 29 29 32 55 61 61 61 61 55 65 61 68 65 58 61 55 55 55 52 52 48 48 61 61 55 58 61 58 65 55 52
0 0 0 0 0 0 0 0 3 0 0 10 19 19 26 23 23 26 26 32 29 61 65 68 68 68 68 71 65 65 65 61 58 65 58 48 55 55 61 52 58 61 58 58 55 55 52 55 61
0 0 0 0 0 0 0 0 3 6 6 6 16 23 26 29 35 35 32 29 35 61 65 68 68 71 71 74 74 71 68 65 61 55 65 61 58 58 42 58 58 58 61 58 55 61 58 42 48
0 0 0 0 0 0 0 0 0 3 0 3 10 29 29 26 35 35 35 32 42 58 65 55 74 74 74 74 74 71 71 65 68 55 65 52 55 58 61 61 61 61 58 55 52 55 52 52 58
0 0 0 0 0 0 0 0 0 10 13 6 10 19 23 29 32 35 42 45 39 55 61 71 74 77 81 77 68 71 68 65 68 65 68 61 58 61 55 61 52 61 58 58 55 48 55 58 55
0 0 0 0 0 0 0 0 0 0 13 6 10 13 13 32 32 42 45 42 35 45 61 68 81 81 81 81 77 81 65 71 68 68 68 68 65 55 48 58 52 55 55 58 58 45 58 58 55
0 0 0 0 0 0 0 0 0 3 3 10 10 19 13 19 29 42 42 52 55 48 61 68 77 81 77 77 81 81 71 71 71 65 68 65 65 58 52 52 58 55 58 55 61 58 55 58 52
0 0 0 0 0 0 0 0 3 3 3 6 13 16 13 16 29 39 42 52 55 55 61 68 71 74 74 71 71 74 74 71 71 68 61 61 58 58 55 55 58 55 55 52 58 61 55 45 48
0 0 0 0 0 0 0 0 3 3 6 13 10 13 16 16 23 35 42 45 52 48 58 68 74 71 74 71 74 74 71 61 58 61 52 55 58 58 55 55 52 48 45 42 55 58 52 45 45
0 0 0 0 0 0 0 3 6 6 6 10 13 16 16 19 26 32 35 52 55 55 65 61 68 65 65 65 68 71 68 65 61 65 52 52 58 55 55 55 52 52 48 45 52 48 48 48 48
0 0 0 0 0 0 0 3 10 3 6 10 13 16 23 23 26 35 42 55 55 58 61 61 61 65 68 58 55 55 58 58 61 55 58 65 61 58 55 52 55 55 52 48 52 45 45 48 52
0 0 0 0 0 0 0 6 6 10 6 10 19 19 19 26 29 29 35 42 48 55 55 61 55 61 58 55 55 52 52 58 61 61 65 65 65 61 58 48 52 52 52 48 42 42 42 42 42
0 0 0 0 3 0 0 3 6 6 6 19 23 23 19 23 26 26 32 45 52 52 48 55 58 55 58 58 52 52 52 55 58 61 65 65 65 61 65 58 58 52 52 52 45 42 39 39 39

GEFSSGP_con_cape1000_318.txt.gz
Probability
13 10 6 6 13 3 0 0 0 0 0 0 0 0 0 0 0 0 0 0 10 16 35 58 65 68 68 77 77 71 71 71 65 61 61 55 58 68 58 68 65 61 65 55 58 52 48 42 48
3 3 3 13 0 0 0 0 0 0 0 0 0 0 0 3 0 0 0 3 16 19 26 48 65 71 74 74 68 61 65 65 65 65 65 58 58 74 61 61 68 61 68 45 55 45 42 52 48
3 3 10 10 3 0 0 3 3 0 0 0 0 0 6 6 6 0 0 10 16 16 23 48 68 71 74 71 68 65 61 61 61 65 52 61 61 61 58 61 61 55 48 48 39 39 32 45 39
3 13 13 3 3 0 0 0 3 0 0 0 0 3 3 3 6 6 3 10 13 19 26 55 68 65 68 68 65 65 61 58 61 58 55 58 58 61 58 61 61 58 52 45 39 42 35 32 32
13 13 10 3 0 0 0 3 3 0 0 0 3 3 3 6 10 6 3 6 13 16 29 52 71 68 68 68 65 61 58 61 58 55 52 48 52 58 58 61 55 55 42 45 42 39 35 35 35
16 10 3 0 0 0 0 3 3 3 6 6 3 3 0 3 6 6 6 3 13 19 26 42 68 65 61 65 65 61 65 61 58 55 55 45 55 55 52 55 52 48 42 42 35 29 39 35 35
13 13 6 3 0 0 0 0 3 6 10 6 3 3 0 0 0 3 3 3 10 16 23 29 42 48 58 61 68 65 68 68 65 55 65 48 52 55 48 52 55 48 42 35 39 29 32 32 32
13 10 6 0 0 0 0 0 3 3 10 10 3 3 0 3 0 3 3 3 6 16 23 26 29 26 23 35 61 61 61 61 55 55 55 52 58 48 55 55 48 48 35 32 39 32 45 42 42
6 6 3 0 0 0 0 0 3 3 10 10 10 10 3 6 0 0 0 0 3 0 3 6 13 6 10 19 42 52 52 48 45 48 55 45 19 23 32 42 48 48 39 39 35 39 45 45 45
6 3 3 0 0 0 3 3 6 6 10 13 10 13 10 6 3 0 0 0 0 0 0 0 3 3 3 13 13 10 16 19 16 10 10 6 6 3 23 42 52 48 35 39 39 48 42 42 23
0 0 0 0 0 0 3 3 6 6 10 13 6 6 6 10 3 0 0 0 0 0 3 0 0 0 3 6 6 10 3 3 6 6 0 0 0 3 6 10 13 16 23 10 13 13 19 23 13
0 0 0 0 0 0 3 3 3 6 6 10 6 6 6 3 3 0 0 0 0 3 0 0 0 0 6 6 3 3 3 3 3 3 3 6 0 0 6 3 0 0 0 0 0 3 3 13 10
0 0 0 0 0 3 0 0 3 3 3 6 6 6 6 3 3 3 3 0 0 3 3 6 6 3 3 6 6 3 3 3 3 3 6 10 6 10 10 3 3 3 0 3 0 3 6 6 10
0 0 0 0 0 0 0 0 3 3 3 6 3 6 6 3 3 3 3 0 0 3 3 3 13 13 13 10 6 6 6 6 6 6 10 3 3 6 6 6 6 3 6 6 3 0 3 10 13
0 0 0 0 0 0 0 0 6 3 3 6 6 6 6 6 3 3 6 6 3 3 3 10 16 13 10 13 16 13 10 10 10 6 6 10 6 10 10 10 13 10 3 10 10 6 10 13 10
0 0 0 0 0 0 0 0 0 6 6 6 6 6 6 6 3 6 10 6 10 3 6 13 19 16 16 16 19 13 10 13 13 6 6 13 13 10 13 19 19 10 13 13 6 13 10 3 6
0 0 0 0 0 0 0 0 0 3 3 6 6 6 6 3 3 6 6 10 10 10 13 13 10 16 16 19 16 19 16 13 10 16 13 13 13 13 13 16 16 10 10 6 13 6 6 10 10
0 0 0 0 0 0 0 0 0 0 3 3 6 6 6 10 10 6 10 10 10 13 16 13 16 19 13 19 19 16 13 10 10 6 13 10 13 13 16 16 16 16 13 3 10 10 13 10 16
0 0 0 0 0 0 0 0 0 0 3 6 6 6 6 10 6 6 10 10 16 13 13 19 23 16 13 19 16 13 13 16 19 13 13 10 10 19 16 19 16 16 16 6 16 16 16 13 13
0 0 0 0 0 0 0 0 0 0 6 6 6 6 6 6 6 13 13 13 19 16 19 26 19 19 23 19 16 13 13 16 13 16 13 16 19 19 19 19 19 19 13 13 16 16 13 19 16
0 0 0 0 0 0 0 0 0 0 6 6 6 6 6 6 6 13 19 19 23 23 26 32 23 19 19 16 13 13 13 16 16 19 16 13 16 19 19 13 19 16 16 16 16 19 16 16 13
0 0 0 0 0 0 0 0 0 0 6 6 6 6 6 10 13 10 16 19 23 23 32 29 32 29 23 19 19 16 13 16 16 16 19 16 16 19 26 26 26 23 19 19 19 19 19 23 19
0 0 0 0 0 0 0 0 0 0 3 3 3 6 6 10 13 13 19 23 26 32 35 35 29 29 32 32 16 19 19 19 23 16 19 23 23 23 26 29 26 23 23 16 19 19 16 23 19
0 0 0 0 0 0 0 0 0 3 3 3 3 10 13 10 13 13 23 26 32 29 35 39 35 32 39 35 26 19 19 23 23 26 19 26 26 16 23 26 23 19 19 19 19 26 26 26 26
0 0 0 0 0 0 0 0 0 3 0 3 3 6 13 10 10 16 19 26 35 32 39 35 39 32 39 39 32 23 26 23 29 29 23 26 26 26 26 23 19 23 19 19 19 19 19 16 23
0 0 0 0 0 0 0 0 3 3 0 6 6 13 13 10 13 16 23 23 32 35 39 39 35 39 42 39 29 29 32 29 26 26 23 19 26 26 29 23 19 23 23 19 16 16 16 16 13
0 0 0 0 0 0 0 0 3 0 3 6 13 16 13 16 13 13 19 19 26 35 29 35 42 45 39 42 29 32 29 29 26 29 29 29 32 39 29 26 26 19 16 13 16 13 13 19 19
0 0 0 0 0 0 0 3 3 3 6 13 13 19 16 19 13 13 13 13 19 32 29 32 39 42 39 32 32 35 26 29 29 29 32 35 39 35 32 29 26 23 16 16 19 19 13 16 16
0 0 0 0 0 0 0 0 3 3 13 16 19 13 10 10 16 13 13 16 16 29 29 32 35 35 35 35 32 32 35 32 35 35 35 35 35 29 29 29 23 19 16 13 13 13 10 16 16
0 0 0 0 0 0 0 0 0 3 3 13 13 6 6 6 6 10 10 10 16 23 26 32 32 35 35 35 32 32 39 35 35 35 29 29 29 29 26 23 19 19 16 13 16 16 16 16 16

GEFSSGP_con_cape1000_324.txt.gz
Probability
23 16 6 3 0 0 0 0 0 0 0 0 0 0 0 0 0 0 0 0 0 10 26 45 68 65 61 61 61 61 58 58 55 61 55 65 61 61 58 65 68 68 61 58 52 52 45 42 45
13 6 3 0 0 0 0 0 0 0 0 0 0 0 0 0 0 0 0 3 10 13 19 35 61 71 58 58 58 61 61 55 52 55 61 71 68 71 71 71 68 61 61 58 58 48 39 45 42
0 3 0 0 0 0 0 0 0 0 0 0 0 0 0 3 0 0 0 13 13 13 13 29 68 68 58 58 68 65 58 55 55 55 65 65 68 71 74 71 71 71 58 52 45 39 42 42 39
0 0 3 0 0 0 0 0 0 0 0 0 0 0 0 0 0 0 10 16 16 13 23 39 58 65 61 58 65 68 55 58 55 58 61 65 61 68 71 74 77 74 61 55 55 48 42 39 42
3 6 3 0 0 0 0 0 0 0 0 3 0 0 3 3 0 10 10 16 10 13 23 39 55 65 65 65 65 58 48 52 61 65 68 61 61 61 61 61 65 74 65 45 45 35 42 39 39
6 6 0 0 0 0 0 3 0 3 3 3 3 0 3 0 0 6 10 10 10 13 19 32 52 61 61 61 65 52 55 52 61 61 58 61 61 58 48 55 52 55 42 48 42 32 35 42 42
10 3 3 3 0 0 0 3 3 3 6 6 3 3 3 3 0 3 3 3 13 13 13 23 29 39 52 48 65 52 48 48 48 55 61 58 58 52 52 55 52 52 42 39 45 42 32 48 52
10 3 3 3 0 0 0 3 6 6 6 6 3 3 3 3 0 0 0 3 6 10 10 13 16 19 19 32 45 42 45 48 52 48 45 39 42 45 52 52 48 39 32 45 42 39 45 45 39
10 3 0 0 0 0 0 3 6 6 10 6 10 6 3 3 0 0 0 0 6 6 6 6 10 10 10 16 26 26 32 39 29 26 32 29 13 13 32 39 32 32 29 29 29 35 35 35 35
6 0 0 0 0 0 3 3 6 6 3 3 3 3 3 3 0 0 0 0 0 6 3 3 3 3 3 13 13 13 19 16 16 13 10 3 3 3 19 26 35 39 39 39 42 42 35 32 23
3 0 0 0 0 0 3 3 6 3 3 3 3 3 3 3 0 0 0 0 0 0 3 3 3 3 3 3 3 0 3 3 3 3 6 3 3 3 3 3 3 3 10 3 16 6 10 16 13
0 0 0 0 0 3 0 3 3 3 3 3 3 3 3 3 0 0 0 0 0 0 0 0 0 0 0 3 0 0 0 0 3 3 3 3 3 3 0 0 0 0 0 0 0 3 3 0 3
0 0 0 0 0 0 0 0 3 3 6 3 3 3 3 3 0 0 0 0 0 0 0 0 0 0 3 3 0 0 0 0 0 0 0 0 0 0 0 0 0 0 0 0 0 6 6 3 0
0 0 0 0 0 0 0 0 6 6 6 3 3 3 3 3 3 0 0 0 0 3 0 0 0 0 3 3 0 0 0 0 0 0 0 0 0 0 0 0 0 0 0 0 0 3 3 3 3
0 0 0 0 0 0 0 0 3 6 6 3 3 3 3 3 3 0 0 0 0 0 0 0 0 3 3 3 0 0 0 0 0 0 0 0 0 0 0 0 3 3 3 0 0 3 3 0 6
0 0 0 0 0 0 0 0 3 10 3 3 3 3 3 3 3 3 3 3 0 0 0 3 10 3 0 0 0 0 0 0 0 0 0 0 3 0 0 0 3 3 6 3 3 3 3 3 3
0 0 0 0 0 0 0 0 3 6 6 3 3 3 3 3 3 3 3 3 3 0 0 0 6 6 0 0 0 0 0 0 0 3 3 6 6 6 3 6 6 3 0 0 3 0 10 6 6
0 0 0 0 0 0 0 0 3 6 3 3 3 3 3 3 3 3 3 3 3 0 0 3 6 3 3 0 0 0 0 0 6 3 3 6 6 6 6 6 6 6 6 3 3 6 6 6 6
0 0 0 0 0 0 0 0 3 6 3 3 3 3 6 3 3 6 3 6 6 3 0 3 3 0 0 0 3 3 3 3 6 6 3 3 3 10 10 6 6 10 10 10 6 10 10 10 10
0 0 0 0 0 0 0 0 0 6 3 3 3 3 3 3 3 6 6 6 6 6 6 0 3 0 3 3 3 3 3 3 6 10 10 6 6 10 16 13 13 10 10 10 10 13 10 13 10
0 0 0 0 0 0 0 0 0 6 6 6 6 6 6 6 3 6 6 6 10 6 6 6 6 0 3 3 3 6 3 6 6 10 10 10 6 10 6 13 13 6 6 10 10 13 10 13 13
0 0 0 0 0 0 0 0 0 3 3 3 3 3 6 3 3 3 6 6 6 10 3 3 3 0 3 3 6 10 10 10 10 6 10 10 10 10 10 10 16 6 10 10 13 16 13 13 16
0 0 0 0 0 0 0 0 0 3 6 6 6 6 6 3 3 3 6 6 10 10 6 3 3 6 3 3 6 10 10 10 10 6 10 13 10 6 10 13 13 16 10 10 13 16 16 16 19
0 0 0 0 0 0 0 0 0 0 6 3 3 10 10 6 3 3 6 10 10 3 6 3 6 10 6 6 6 10 10 10 10 10 16 16 16 13 6 13 13 10 13 16 13 13 16 16 16
0 0 0 0 0 0 0 0 0 0 0 3 3 6 6 6 10 10 13 10 6 6 10 10 10 13 10 6 6 6 13 13 10 10 16 16 16 13 13 10 16 13 10 13 13 13 13 13 13
0 0 0 0 0 0 0 0 0 3 3 3 10 10 10 13 13 13 10 6 13 10 6 13 13 16 10 6 6 6 6 10 13 10 13 19 19 16 13 13 13 13 10 10 13 13 13 16 13
0 0 0 0 0 0 0 0 0 3 6 6 10 13 13 13 13 13 10 10 10 10 13 13 13 13 13 13 10 10 10 13 13 16 19 19 19 23 19 19 26 16 10 16 10 10 10 10 16
0 0 0 0 0 0 0 0 0 3 6 6 16 13 13 13 13 10 10 10 13 13 10 10 10 13 13 13 13 10 10 13 16 16 16 16 19 23 26 29 26 19 16 10 10 10 10 10 10
0 0 0 0 0 0 0 0 0 0 6 6 16 13 13 13 13 10 10 10 10 10 10 10 16 13 13 19 16 13 10 16 16 19 23 19 26 26 23 19 16 16 16 10 10 10 10 13 13
0 0 0 0 0 0 0 0 3 6 6 3 13 13 6 10 10 6 3 10 10 10 10 13 19 23 19 19 16 13 10 6 16 23 23 16 19 26 16 16 16 16 16 13 10 10 13 13 13

GEFSSGP_con_cape1000_330.txt.gz
Probability
16 26 19 23 32 0 0 0 0 0 0 0 3 0 0 0 0 6 6 6 6 3 23 29 55 61 58 61 55 55 45 48 52 48 55 61 55 58 58 55 65 58 52 42 42 39 52 55 39
23 19 26 35 6 0 0 0 0 0 0 0 0 0 0 0 3 3 6 10 6 6 19 19 55 52 58 58 61 48 52 45 45 42 61 58 55 55 55 52 58 52 52 52 35 39 45 42 52
23 23 29 6 0 0 0 3 3 0 0 0 0 0 0 3 0 3 10 6 6 6 16 32 45 55 55 55 55 52 45 45 45 48 52 58 58 55 58 61 65 65 52 55 35 39 39 42 39
19 23 19 3 0 0 3 3 3 3 0 3 0 0 3 3 0 10 6 6 10 10 23 39 52 55 52 55 52 52 55 48 52 58 61 55 58 55 58 55 61 61 65 52 48 39 35 29 32
23 19 6 0 0 0 0 3 3 0 0 0 0 0 6 3 10 6 6 3 10 6 19 32 58 52 55 52 52 48 48 48 48 52 61 52 55 61 55 65 55 48 58 48 39 32 29 29 29
19 10 0 0 0 0 0 0 0 0 0 0 0 3 10 13 10 10 6 10 10 13 19 29 42 45 45 39 45 48 48 48 48 61 55 65 58 58 61 58 55 52 45 42 39 42 35 32 35
16 3 0 0 0 0 0 0 0 0 0 0 0 0 6 13 13 16 16 16 13 13 16 26 29 29 39 39 42 48 48 48 42 45 52 52 45 39 48 52 42 39 39 35 35 29 32 32 35
16 6 0 0 0 0 0 0 0 0 3 3 0 0 6 13 13 16 13 16 13 13 16 19 32 26 32 32 35 39 45 42 39 42 35 45 42 42 42 39 35 35 35 29 26 35 29 29 35
16 6 3 0 0 0 0 3 6 6 6 10 6 3 10 10 10 10 16 16 16 13 16 19 29 29 26 23 16 29 35 35 35 32 26 29 39 23 29 13 32 23 23 29 29 32 32 29 26
10 0 3 0 0 0 3 3 6 6 6 10 13 16 16 10 13 13 10 13 13 13 13 16 23 26 19 16 26 23 13 23 29 32 23 35 39 42 13 16 29 29 26 32 29 32 29 19 19
0 0 3 3 3 3 3 3 6 6 6 6 13 13 16 10 13 19 13 10 16 16 16 19 26 23 19 16 16 16 26 19 13 23 26 32 32 19 13 16 26 35 32 32 26 23 19 19 23
0 0 0 3 3 0 3 3 6 6 6 10 10 13 16 13 13 16 16 13 13 13 13 29 26 26 35 23 13 10 13 16 13 16 19 19 23 23 26 32 35 39 39 35 26 32 23 26 23
0 3 3 3 0 0 0 0 6 6 10 13 16 16 13 13 16 13 10 6 13 19 16 32 32 26 29 29 29 13 16 13 13 32 29 26 23 32 23 35 35 35 32 35 29 32 29 29 19
0 0 3 0 0 0 0 0 3 6 6 13 13 10 6 13 10 10 10 10 13 13 23 35 39 32 39 35 35 26 10 32 19 26 32 32 29 32 23 32 32 26 29 29 32 23 29 29 26
0 0 0 0 0 0 0 0 6 6 10 13 13 10 10 16 19 16 16 26 19 19 23 29 29 35 39 35 23 16 16 13 23 29 39 39 26 29 32 26 26 29 29 35 42 29 29 39 32
0 3 3 3 0 0 0 3 10 3 6 10 13 10 13 19 19 23 19 23 26 26 29 35 16 23 35 42 48 29 26 26 32 35 29 45 35 32 35 29 29 26 26 35 32 32 35 35 32
0 0 0 0 0 0 0 3 13 10 6 10 13 13 13 16 19 23 16 16 32 35 39 45 35 32 32 48 52 35 35 45 35 45 39 48 39 35 35 35 39 39 35 39 35 35 35 35 32
0 0 0 0 6 3 3 3 13 10 6 13 13 16 13 16 23 26 23 13 26 35 42 52 58 52 42 45 48 45 42 35 39 42 52 48 42 35 39 32 39 35 32 42 45 42 45 39 45
0 0 0 0 3 3 6 3 10 16 10 10 10 10 13 16 10 16 19 23 29 39 48 55 55 65 61 55 48 48 45 45 42 39 45 45 42 42 42 35 35 35 35 39 39 39 39 42 42
0 0 0 3 3 3 3 3 6 16 13 10 10 6 6 10 16 23 23 26 45 52 52 52 58 52 61 58 55 55 45 39 35 32 45 48 45 45 35 42 39 39 39 39 48 52 42 42 42
0 0 3 3 3 3 3 0 13 13 13 13 10 10 10 10 19 35 35 45 45 55 55 48 58 61 58 58 48 52 52 42 29 45 42 39 45 39 42 42 42 45 39 45 48 55 42 39 42
0 0 0 3 3 3 0 3 10 10 10 10 19 19 16 16 13 35 42 42 52 48 52 55 61 65 61 61 55 45 48 42 42 48 39 42 45 39 39 42 35 42 39 45 42 39 48 52 52
3 0 3 3 3 0 0 0 3 10 6 16 16 23 19 19 19 32 32 45 45 52 52 52 55 61 61 61 65 65 55 42 35 39 48 48 52 48 39 39 42 48 45 45 48 39 39 48 42
3 6 6 0 0 0 0 0 3 10 13 16 19 19 19 23 19 19 29 39 42 48 48 48 58 58 61 61 55 58 58 55 55 55 52 45 42 42 39 39 48 48 48 48 45 45 39 45 45
0 0 0 0 0 0 0 0 6 16 10 13 19 19 19 16 23 23 26 39 52 55 48 52 55 58 55 55 58 61 58 58 58 52 52 52 32 42 45 45 52 52 55 48 52 48 48 48 45
0 0 0 0 0 0 0 0 13 19 16 16 19 19 16 16 19 23 32 42 55 58 55 52 58 55 55 55 55 52 55 55 45 52 45 52 42 35 42 48 48 48 45 45 48 42 42 48 45
0 0 0 0 0 0 0 16 16 23 19 23 23 19 16 19 26 32 29 39 52 55 52 52 58 58 55 52 55 55 52 55 45 48 48 39 42 39 48 52 52 52 48 45 45 42 42 45 35
0 0 0 0 0 0 0 0 16 26 29 26 26 23 19 16 19 23 35 39 45 52 52 55 55 52 52 48 48 42 52 45 48 55 55 55 48 55 52 42 48 48 48 48 52 42 42 45 42
0 0 0 0 0 0 0 0 6 19 26 32 26 19 19 16 13 16 29 42 55 55 55 58 52 52 48 48 48 42 45 45 48 52 48 48 55 55 52 55 48 52 52 52 45 42 39 42 45
0 0 0 0 0 0 0 13 13 19 35 39 23 19 16 19 13 23 26 39 45 52 52 52 52 48 45 48 45 45 48 55 48 45 45 48 48 45 42 45 48 42 45 48 39 42 39 39 35

GEFSSGP_con_cape1000_336.txt.gz
Probability
10 10 26 48 48 32 3 0 0 0 3 3 3 3 3 6 6 3 10 10 16 26 32 42 52 52 48 48 52 52 45 48 48 52 45 48 52 52 55 55 58 48 52 52 35 35 39 39 35
19 32 35 55 39 3 0 0 0 0 3 3 3 3 6 3 3 6 6 10 23 23 13 29 61 48 48 45 45 48 52 48 52 52 48 45 48 48 48 45 45 45 48 45 45 42 42 39 35
26 39 35 35 13 0 0 0 0 0 0 3 3 3 3 3 3 10 6 6 23 19 19 35 58 52 48 42 48 48 42 39 42 45 39 39 39 42 48 42 39 52 45 48 42 35 35 35 39
42 39 35 23 0 0 0 0 0 0 0 3 6 6 6 6 6 6 6 10 23 23 16 35 58 45 45 42 45 45 39 39 39 39 32 39 39 48 39 42 35 45 48 39 35 39 32 39 35
48 42 26 0 0 0 0 0 0 0 0 3 6 10 6 6 6 6 6 13 16 23 23 32 55 45 52 48 39 42 45 45 39 35 42 39 45 52 45 39 39 42 35 42 39 32 39 35 29
32 23 13 0 0 0 0 0 0 0 3 3 3 10 10 6 10 10 10 13 13 19 29 26 45 48 48 45 45 42 45 45 52 42 48 45 42 55 52 39 42 39 35 32 32 32 39 29 32
23 10 3 0 0 0 0 0 0 0 3 3 3 6 10 13 13 16 16 16 23 23 32 32 29 48 45 42 45 45 48 55 55 52 52 48 42 55 48 45 42 32 26 26 26 29 26 23 32
6 3 3 0 0 0 0 0 0 0 3 3 3 10 10 13 16 16 19 23 23 26 32 35 32 26 26 32 45 52 52 48 52 52 42 42 48 39 45 39 45 32 29 23 23 29 26 35 39
3 3 3 0 0 0 0 0 0 0 3 3 13 13 13 16 16 13 13 23 23 23 23 29 26 16 19 16 35 42 39 48 48 42 42 39 29 26 39 19 39 32 29 23 26 39 35 42 35
0 3 0 0 0 0 0 0 0 0 3 6 10 13 10 13 16 13 13 16 16 19 19 19 16 16 13 6 35 23 23 35 39 48 39 39 45 39 26 29 42 32 39 39 35 42 48 39 26
0 0 0 0 0 0 0 0 0 0 6 10 10 13 13 16 19 19 16 19 19 23 19 19 26 39 16 26 29 35 29 39 35 42 48 55 45 32 29 35 32 35 35 29 32 39 29 19 32
0 0 0 0 0 0 0 0 0 3 6 10 13 16 16 19 19 23 23 19 19 26 23 16 23 39 48 32 23 26 23 39 29 48 48 45 58 45 35 42 42 48 42 35 42 45 35 26 32
0 0 0 0 0 0 0 0 0 3 3 10 13 13 16 16 16 19 23 23 26 32 29 32 48 48 55 45 39 29 39 35 29 48 45 48 52 48 45 45 52 42 32 42 45 39 35 35 35
0 0 0 0 0 0 0 0 3 3 10 10 10 13 13 16 23 23 29 26 29 29 32 42 29 55 68 55 45 42 35 55 42 58 55 55 52 55 52 45 45 45 39 35 39 48 42 42 42
0 0 0 0 3 3 3 3 3 6 10 13 10 16 10 10 16 19 26 26 26 35 48 55 35 58 65 48 42 39 39 26 48 55 55 55 55 55 55 48 45 45 42 39 45 42 45 42 42
0 0 0 0 3 3 3 3 6 10 19 23 23 16 10 16 6 13 16 26 29 39 58 58 35 48 55 61 58 39 39 42 52 52 58 55 55 52 48 48 45 45 45 45 45 48 45 42 45
0 0 0 3 3 3 3 3 6 13 16 26 16 10 10 16 16 16 13 19 35 48 61 55 58 55 65 68 68 55 48 42 45 55 58 55 45 52 55 52 48 42 42 45 39 45 48 45 42
0 0 3 3 3 6 3 6 13 6 6 6 10 6 13 13 19 23 23 26 42 55 65 65 71 74 74 68 71 68 58 45 48 52 58 55 45 48 55 52 48 45 45 45 48 45 55 52 52
3 3 3 3 3 3 3 6 10 6 6 6 10 13 16 13 13 23 19 35 52 58 61 68 71 81 84 74 71 65 58 58 55 55 61 58 52 55 55 48 52 45 52 55 45 52 52 52 42
0 0 3 3 3 0 6 6 6 10 13 13 16 6 10 16 26 32 23 35 48 61 68 68 77 77 77 77 81 71 68 61 61 58 61 65 55 58 42 55 61 58 61 55 55 58 58 52 52
0 0 0 3 3 0 0 3 3 6 6 13 19 10 10 19 32 39 39 42 45 48 65 65 77 77 77 77 71 71 74 65 55 58 65 58 61 61 61 61 58 61 65 61 65 61 55 58 61
0 0 0 3 3 3 3 3 13 10 13 13 16 13 16 26 35 32 32 45 45 55 58 68 74 77 77 74 71 68 68 61 61 68 68 58 61 61 58 52 58 61 65 68 61 55 61 58 58
0 0 0 0 3 3 3 0 3 16 16 16 13 16 26 23 32 39 32 45 48 52 55 61 74 77 81 77 74 74 71 68 61 61 61 65 61 52 52 61 55 55 68 68 68 61 58 61 58
0 0 0 0 0 0 0 0 0 16 16 19 23 19 16 23 26 32 35 48 39 48 48 58 74 84 81 77 68 74 68 65 68 68 68 65 68 68 61 58 65 61 61 61 61 61 61 65 65
0 0 0 0 0 0 3 3 3 6 10 16 19 16 16 16 19 23 29 45 52 45 52 58 74 81 81 74 71 65 68 68 71 68 68 71 65 68 68 61 61 65 61 58 65 65 68 61 61
0 0 0 0 0 0 0 6 13 10 13 19 19 16 13 13 16 26 26 45 45 45 55 61 71 74 81 77 68 71 65 68 65 65 68 65 65 68 68 65 65 65 65 61 65 65 65 68 65
0 0 0 0 0 0 3 6 10 10 16 23 19 19 13 13 13 26 29 32 35 45 48 55 71 71 77 77 77 77 74 61 58 58 68 68 65 58 65 68 65 61 65 61 61 61 71 71 68
0 0 0 0 0 0 3 3 3 23 16 19 23 19 16 13 10 26 39 39 39 42 52 55 68 74 77 74 74 61 68 61 61 58 52 55 61 61 52 58 58 61 61 65 65 65 65 68 65
0 0 0 0 0 0 0 3 6 23 26 26 23 23 13 16 16 23 29 32 35 42 52 58 58 77 77 71 71 71 58 52 55 55 55 55 58 58 58 55 55 55 58 55 55 55 61 58 58
0 0 0 0 3 3 3 0 10 23 13 26 23 19 16 16 19 23 26 32 39 39 52 61 58 68 71 68 61 58 58 55 52 48 52 52 55 55 55 58 55 55 52 52 52 45 42 48 52

GEFSSGP_con_cape1000_342.txt.gz
Probability
39 13 10 10 13 3 0 0 0 0 3 3 3 0 0 3 0 0 0 10 13 23 23 42 58 52 55 52 52 48 48 55 48 52 45 45 48 55 55 55 52 55 52 52 45 42 42 39 42
3 10 10 16 6 0 0 0 0 0 3 3 3 3 0 0 0 0 6 10 6 16 16 26 45 52 55 52 52 52 55 55 52 52 48 48 45 48 52 61 58 48 48 42 42 42 45 32 35
6 13 19 13 6 0 0 0 0 3 6 6 6 6 0 3 3 3 3 3 13 13 16 32 55 45 48 48 48 45 45 52 48 52 58 52 48 48 52 55 55 52 45 48 39 48 42 42 42
23 19 16 6 0 0 0 0 0 6 6 6 6 3 3 6 6 3 3 6 10 13 19 32 52 45 48 52 45 48 48 48 52 48 55 58 48 45 48 55 48 52 45 45 35 32 42 42 42
13 16 16 3 0 0 0 0 3 6 6 6 3 3 3 3 3 3 3 3 6 13 23 35 55 48 48 48 52 52 55 55 55 48 55 55 52 48 45 45 48 45 45 35 32 29 35 35 45
16 13 10 0 0 0 0 0 3 6 6 3 0 3 3 3 3 3 0 3 10 10 26 32 55 48 42 52 52 61 61 58 58 55 55 48 45 55 55 45 45 48 48 35 26 26 29 35 48
13 10 3 0 0 0 0 0 0 6 3 6 6 3 6 3 3 3 0 0 6 6 10 19 26 39 48 55 58 58 55 58 58 52 52 48 48 48 48 48 52 39 39 29 32 26 39 39 42
13 6 3 0 0 0 0 0 0 3 3 6 6 3 0 3 3 0 0 0 3 6 13 16 16 13 19 29 52 52 55 55 58 55 48 48 48 45 52 48 52 39 35 29 29 29 42 42 42
6 6 3 0 0 0 0 0 0 3 3 6 10 6 6 3 6 0 0 0 0 0 6 13 13 13 13 13 29 35 45 45 39 45 48 32 16 16 29 32 48 35 29 39 42 39 39 42 42
6 3 0 0 0 0 0 0 0 3 6 6 10 10 10 3 10 10 6 0 3 0 0 0 3 3 3 10 13 13 13 13 13 10 13 10 6 6 6 29 45 39 32 35 35 35 45 42 26
6 3 0 0 0 0 0 0 3 3 6 3 10 10 10 6 3 10 6 10 3 3 0 0 0 0 0 6 10 6 10 10 10 10 6 6 3 3 0 0 10 10 19 16 19 29 29 13 6
0 0 0 0 0 0 0 0 3 3 6 6 6 10 10 6 3 3 3 10 10 6 0 0 0 0 0 3 3 0 3 3 6 6 6 3 3 0 0 0 0 0 0 3 3 6 10 6 6
0 0 0 0 0 0 3 3 6 6 6 6 6 10 10 6 3 3 10 13 13 10 0 0 0 0 0 3 3 3 0 0 3 6 6 3 3 0 0 3 3 3 3 6 6 10 10 6 6
0 3 0 0 3 3 3 6 6 6 6 6 6 10 6 6 6 6 10 6 6 6 0 0 0 0 0 0 0 3 3 6 10 10 10 6 10 10 3 6 6 6 6 0 3 6 6 10 6
0 0 3 3 3 3 6 3 3 6 3 6 6 6 6 6 6 6 3 6 6 6 6 3 0 0 0 0 3 0 0 0 3 13 13 13 6 6 3 3 6 6 6 10 6 10 6 6 6
0 0 0 0 3 3 0 0 3 3 6 6 6 6 6 6 6 6 3 6 6 10 10 6 13 0 0 6 6 6 3 3 3 10 10 16 10 10 10 13 10 13 13 10 10 6 6 6 6
0 0 0 6 3 0 0 0 0 3 3 6 6 3 3 3 10 10 13 13 10 13 13 10 10 6 6 3 3 3 3 10 10 10 10 16 19 16 13 13 10 13 10 10 16 10 6 6 6
0 0 0 3 3 0 0 0 0 0 0 3 6 3 3 3 6 16 16 23 16 16 13 16 10 13 13 13 13 10 10 10 10 10 13 13 16 13 13 19 16 13 13 10 13 10 13 10 10
0 0 0 0 3 0 0 0 0 0 0 3 3 3 3 3 10 19 19 29 23 19 19 16 13 13 16 16 16 13 6 13 13 13 13 16 16 16 19 19 13 16 13 13 16 10 13 16 10
0 0 0 0 0 0 0 0 0 3 3 3 3 3 3 3 13 19 13 23 23 19 19 23 10 13 16 13 16 16 16 16 16 13 10 16 16 16 19 16 19 23 19 16 13 10 10 10 13
0 0 0 0 0 0 0 0 0 0 3 3 3 3 3 3 10 13 10 19 29 26 19 32 19 13 16 19 16 16 16 13 16 10 16 16 16 19 19 26 19 19 19 19 16 16 16 16 16
0 3 0 0 0 0 0 0 0 3 3 3 3 3 3 3 6 13 10 16 26 26 23 26 19 23 23 26 19 19 16 16 19 19 16 13 13 16 26 19 23 19 19 26 23 23 16 16 23
0 3 0 0 0 0 0 0 0 0 6 3 6 3 3 3 6 3 10 13 26 35 39 29 26 29 26 26 26 23 19 16 19 19 19 19 19 16 13 16 16 23 26 32 29 26 23 23 26
0 0 0 0 0 0 0 0 0 3 3 10 6 3 3 6 0 3 10 16 26 35 39 39 32 32 23 19 19 23 23 23 19 16 16 19 13 13 13 13 16 19 26 32 32 29 26 26 26
0 0 0 0 0 0 0 3 3 6 3 10 3 6 6 6 6 10 10 19 29 29 39 35 35 32 32 23 19 23 19 23 26 19 19 13 16 16 16 16 16 19 23 23 29 29 26 23 23
0 0 0 0 0 0 0 0 3 3 3 13 10 10 10 6 6 10 13 19 26 29 26 32 39 39 32 29 26 19 23 29 29 19 19 16 13 13 13 16 16 16 19 26 29 29 29 26 26
0 0 0 0 0 0 3 0 0 0 10 10 10 10 10 6 13 10 13 13 19 23 23 26 35 35 29 29 26 23 23 26 26 23 16 13 13 10 13 10 13 16 23 26 23 23 23 23 23
0 0 0 0 0 0 0 0 3 3 13 6 10 10 10 10 13 13 10 16 16 16 19 23 23 26 29 29 29 29 26 26 19 23 19 19 13 16 13 13 10 13 19 19 19 19 19 19 23
0 0 0 0 0 0 0 0 3 3 13 10 10 3 6 13 10 13 10 13 10 19 23 23 23 23 29 35 35 32 32 29 26 23 19 19 19 16 10 13 16 16 19 13 13 19 23 23 19
0 0 0 0 0 0 0 0 3 6 10 10 10 10 13 10 10 6 13 13 13 13 32 26 26 26 29 29 32 35 32 29 32 29 23 16 13 13 10 10 16 19 16 16 10 10 13 16 16